sat.trackr.live / text

‹ back to catalog

STARLINK-3110

NORAD 49420 · 2021-104N

PAYLOAD ACTIVE UNKNOWN

§ Identity

Operator
Country
US
Launch date
2021-11-13
Launch site
AFETR
Launch vehicle
Mass (kg)
RCS (m²)

Purposes: comms

External: N2YO · Heavens-Above · Gunter

§ Orbital elements

Epoch: 2026-09-04T01:50:13.938144Z

Period
93.85 min
Inclination
53.1614°
Eccentricity
0.0001261
Mean motion
15.34387260 rev/d
Perigee alt
461.9 km
Apogee alt
463.6 km
Semi-major
6,840.9 km
B*
2.3864e-6
RAAN
136.4348°
Arg perigee
86.0848°
Mean anomaly
274.0299°
Rev number
26,571

§ Raw data

STARLINK-31101 49420U 21104N   26247.07655021 -.00000296  00000+0  23864-5 0  99992 49420  53.1614 136.4348 0001261  86.0848 274.0299 15.34387260265717

JSON: /api/v1/satellites/49420 · /tle

For live sub-satellite position, see the globe view (requires WebGL).

§ Visibility from observer

Set your observer location to see the next 7 days of passes ≥ 10°. The values pass through the URL so the page stays shareable.

No JS? Fill the form by hand. The geolocation button needs JavaScript.